Weather History for KM30 - August, 2013

Change the Weather History Date:

Sunday, August 18, 2013

  Actual Average (KPAH) Record (KPAH)
Temperature  
Mean Temperature 71 °F 78 °F  
Max Temperature 79 °F 89 °F 103 °F (1988)
Min Temperature 63 °F 66 °F 55 °F (2012)
Degree Days  
Heating Degree Days 0 0  
Month to date heating degree days 0  
Since 1 June heating degree days 4  
Since 1 July heating degree days 0  
Cooling Degree Days 6 13  
Month to date cooling degree days 235  
Year to date cooling degree days 1158  
Since 1 June cooling degree days 986  
Growing Degree Days 21 (Base 50)    
Moisture  
Dew Point 67 °F    
Average Humidity 95    
Maximum Humidity 100    
Minimum Humidity 67    
Precipitation  
Precipitation 0.46 in 0.08 in 1.42 in (1946)
Month to date precipitation 1.67  
Year to date precipitation 31.39  
Snow  
Snow 0.00 in 0.00 in - ()
Month to date snowfall 0.0  
Since 1 June snowfall 0.0  
Since 1 July snowfall 0.0  
Snow Depth -    
Sea Level Pressure  
Sea Level Pressure 30.11 in    
Wind  
Wind Speed 0 mph (SW)    
Max Wind Speed 12 mph    
Max Gust Speed 21 mph    
Visibility 6 miles    
Events Fog , Rain    
T = Trace of Precipitation, MM = Missing Value Source: NWS Daily Summary

Daily Weather History Graph

Daily Weather History Graph

Search for Another Location

Airport or City:

Trip Planner

Search our weather history database for the weather conditions in past years. The results will help you decide how hot, cold, wet, or windy it might be!

Date:

Astronomy

Aug. 18, 2013 Rise Set
Actual Time 6:14 AM CDT 7:42 PM CDT
Civil Twilight 5:46 AM CDT 8:10 PM CDT
Nautical Twilight 5:13 AM CDT 8:42 PM CDT
Astronomical Twilight 4:39 AM CDT 9:17 PM CDT
Moon 5:47 PM CDT (8/18) 3:25 AM CDT (8/18)
Length of Visible Light 14h 23m
Length of Day
13h 28m
Waxing Gibbous, 92% of the Moon is Illuminated
Aug 18
Waxing Gibbous
Aug 20
Full
Aug 28
Last Quarter
Sep 5
New
Sep 12
First Quarter

Hourly Weather History & Observations

Time (CDT) Temp. Dew Point Humidity Pressure Visibility Wind Dir Wind Speed Gust Speed Precip Events Conditions
12:15 AM 65.8 °F 65.8 °F 100% 30.10 in 7.0 mi Calm Calm - N/A   Mostly Cloudy
12:35 AM 65.7 °F 65.7 °F 100% 30.10 in 5.0 mi Calm Calm - N/A   Scattered Clouds
12:55 AM 65.5 °F 65.5 °F 100% 30.09 in 7.0 mi Calm Calm - N/A   Clear
1:15 AM 64.9 °F 64.9 °F 100% 30.08 in 7.0 mi Calm Calm - N/A   Clear
1:35 AM 64.2 °F 64.2 °F 100% 30.08 in 5.0 mi Calm Calm - N/A   Clear
1:55 AM 63.9 °F 63.9 °F 100% 30.08 in 2.5 mi Calm Calm - N/A   Clear
2:15 AM 63.7 °F 63.7 °F 100% 30.08 in 1.2 mi Calm Calm - N/A   Mist
2:35 AM 63.5 °F 63.5 °F 100% 30.08 in 4.0 mi Calm Calm - N/A   Clear
2:55 AM 63.7 °F 63.7 °F 100% 30.08 in 3.0 mi Calm Calm - N/A   Scattered Clouds
3:15 AM 63.5 °F 63.5 °F 100% 30.08 in 4.0 mi Calm Calm - N/A   Scattered Clouds
3:35 AM 63.5 °F 63.5 °F 100% 30.08 in 5.0 mi Calm Calm - N/A   Mostly Cloudy
3:55 AM 63.7 °F 63.7 °F 100% 30.08 in 2.5 mi Calm Calm - N/A   Overcast
4:15 AM 63.5 °F 63.5 °F 100% 30.09 in 1.8 mi Calm Calm - N/A   Overcast
4:35 AM 63.1 °F 63.1 °F 100% 30.09 in 1.2 mi Calm Calm - N/A   Overcast
4:55 AM 63.9 °F 63.9 °F 100% 30.10 in 2.5 mi Calm Calm - N/A   Overcast
5:15 AM 63.9 °F 63.9 °F 100% 30.10 in 4.0 mi Calm Calm - N/A   Overcast
5:35 AM 64.4 °F 64.4 °F 100% 30.10 in 5.0 mi Calm Calm - N/A   Overcast
5:55 AM 64.4 °F 64.4 °F 100% 30.11 in 5.0 mi Calm Calm - N/A   Overcast
6:15 AM 64.6 °F 64.6 °F 100% 30.12 in 5.0 mi Calm Calm - N/A   Overcast
6:35 AM 64.8 °F 64.8 °F 100% 30.12 in 7.0 mi Calm Calm - N/A   Overcast
6:55 AM 65.1 °F 65.1 °F 100% 30.12 in 7.0 mi Calm Calm - N/A   Overcast
7:15 AM 65.5 °F 65.5 °F 100% 30.12 in 7.0 mi Calm Calm - N/A   Overcast
7:35 AM 66.4 °F 66.4 °F 100% 30.12 in 7.0 mi Calm Calm - N/A   Overcast
7:55 AM 66.9 °F 66.9 °F 100% 30.13 in 7.0 mi Calm Calm - N/A   Overcast
8:15 AM 67.6 °F 67.6 °F 100% 30.14 in 7.0 mi Calm Calm - N/A   Overcast
8:35 AM 68.2 °F 68.2 °F 100% 30.14 in 7.0 mi Calm Calm - N/A   Overcast
8:55 AM 68.9 °F 68.2 °F 98% 30.14 in 7.0 mi Calm Calm - N/A   Overcast
9:15 AM 69.3 °F 68.4 °F 97% 30.15 in 7.0 mi Calm Calm - N/A   Overcast
9:35 AM 69.4 °F 68.2 °F 96% 30.16 in 7.0 mi Calm Calm - N/A   Overcast
9:55 AM 70.0 °F 68.2 °F 94% 30.16 in 7.0 mi Calm Calm - N/A   Overcast
10:15 AM 70.7 °F 68.5 °F 93% 30.16 in 7.0 mi Calm Calm - N/A   Overcast
10:35 AM 70.9 °F 68.7 °F 93% 30.16 in 7.0 mi Calm Calm - N/A   Overcast
10:55 AM 71.2 °F 68.9 °F 92% 30.16 in 7.0 mi Calm Calm - N/A   Overcast
11:15 AM 73.2 °F 69.3 °F 87% 30.16 in 7.0 mi Calm Calm - N/A   Overcast
11:35 AM 73.8 °F 69.4 °F 86% 30.15 in 7.0 mi Calm Calm - N/A   Overcast
11:55 AM 73.9 °F 69.1 °F 85% 30.15 in 7.0 mi Calm Calm - N/A   Overcast
12:15 PM 74.3 °F 70.0 °F 86% 30.15 in 7.0 mi WSW 3.5 mph - N/A   Overcast
12:35 PM 75.2 °F 70.7 °F 86% 30.14 in 7.0 mi West 3.5 mph - N/A   Overcast
12:55 PM 74.7 °F 69.6 °F 84% 30.13 in 10.0 mi Calm Calm - N/A   Overcast
1:15 PM 72.5 °F 70.7 °F 94% 30.14 in 5.0 mi North 6.9 mph - N/A Rain Light Rain
1:35 PM 69.6 °F 69.4 °F 99% 30.13 in 3.0 mi Calm Calm - 0.11 in Rain Light Rain
1:55 PM 71.4 °F 71.2 °F 99% 30.13 in 7.0 mi Calm Calm - 0.11 in Rain Light Rain
2:15 PM 72.9 °F 71.1 °F 94% 30.12 in 10.0 mi Calm Calm - N/A   Mostly Cloudy
2:35 PM 75.4 °F 72.0 °F 89% 30.12 in 7.0 mi Calm Calm - N/A   Overcast
2:55 PM 75.0 °F 71.1 °F 87% 30.11 in 10.0 mi Calm Calm - N/A   Scattered Clouds
3:15 PM 74.7 °F 72.5 °F 93% 30.11 in 10.0 mi Calm Calm - N/A   Scattered Clouds
3:35 PM 75.7 °F 69.8 °F 82% 30.10 in 10.0 mi Calm Calm - N/A   Scattered Clouds
3:55 PM 77.7 °F 72.1 °F 83% 30.09 in 10.0 mi Calm Calm - N/A   Clear
4:15 PM 79.0 °F 67.3 °F 67% 30.09 in 10.0 mi Calm Calm - N/A   Clear
4:35 PM 78.1 °F 67.3 °F 69% 30.09 in 10.0 mi Calm Calm - N/A   Clear
4:55 PM 78.6 °F 66.7 °F 67% 30.09 in 10.0 mi South 3.5 mph - N/A   Scattered Clouds
5:15 PM 78.8 °F 66.9 °F 67% 30.09 in 10.0 mi Calm Calm - N/A   Mostly Cloudy
5:35 PM 73.0 °F 65.3 °F 77% 30.10 in 3.0 mi East 11.5 mph 20.7 mph 0.05 in Rain Heavy Rain
5:55 PM 70.0 °F 67.3 °F 91% 30.09 in 2.0 mi Calm Calm - 0.35 in Rain Heavy Rain
6:15 PM 71.1 °F 67.5 °F 88% 30.09 in 10.0 mi Calm Calm - N/A Rain Light Rain
6:35 PM 70.0 °F 68.5 °F 95% 30.08 in 10.0 mi Calm Calm - N/A   Mostly Cloudy
6:55 PM 70.0 °F 69.3 °F 98% 30.08 in 10.0 mi Calm Calm - N/A   Scattered Clouds
7:15 PM 70.2 °F 69.6 °F 98% 30.08 in 10.0 mi Calm Calm - N/A   Mostly Cloudy
7:35 PM 69.3 °F 69.3 °F 100% 30.08 in 7.0 mi Calm Calm - N/A   Scattered Clouds
7:55 PM 68.2 °F 68.2 °F 100% 30.08 in 4.0 mi Calm Calm - N/A   Scattered Clouds
8:15 PM 68.2 °F 68.2 °F 100% 30.09 in 3.0 mi Calm Calm - N/A   Mostly Cloudy
8:35 PM 67.3 °F 67.3 °F 100% 30.09 in 2.0 mi Calm Calm - N/A   Mostly Cloudy
8:55 PM 67.3 °F 67.3 °F 100% 30.10 in 1.5 mi Calm Calm - N/A   Mist
9:15 PM 66.7 °F 66.7 °F 100% 30.11 in 0.5 mi Calm Calm - N/A Fog Fog
9:35 PM 66.2 °F 66.2 °F 100% 30.11 in 0.5 mi Calm Calm - N/A Fog Fog
9:55 PM 65.8 °F 65.8 °F 100% 30.11 in 0.5 mi Calm Calm - N/A Fog Fog
10:15 PM 65.5 °F 65.5 °F 100% 30.11 in 0.5 mi Calm Calm - N/A Fog Fog
10:35 PM 65.7 °F 65.7 °F 100% 30.11 in 0.5 mi Calm Calm - N/A Fog Fog
10:55 PM 65.7 °F 65.7 °F 100% 30.11 in 0.2 mi Calm Calm - N/A Fog Fog
11:15 PM 65.1 °F 65.1 °F 100% 30.11 in 0.2 mi Calm Calm - N/A Fog Fog
11:35 PM 65.3 °F 65.3 °F 100% 30.11 in 0.2 mi Calm Calm - N/A Fog Fog
11:55 PM 64.8 °F 64.8 °F 100% 30.11 in 0.2 mi Calm Calm - N/A Fog Fog